User: anonymous   Login
Location: Unspecified
(0.0000°N, 0.0000°E)
Time: 15:46:26
(UTC+02:00)
Language:

Centaur D-1AR AC-41 - Orbit

View from above orbital plane
View from above orbital plane
View from above satellite
View from above satellite

Ground track
Ground track

The orbit data is extracted from the following two-line orbital elements,

1 10976U 78068B   16274.48145620 -.00000262  00000-0  57514-4 0  9999
2 10976  21.6704 292.7489 7170343  98.1483   6.9198  2.22303805310477
Epoch (UTC): 30 September 2016 11:33:17
Eccentricity: 0.7170343
inclination: 21.6704°
perigee height: 639 km
apogee height: 36202 km
right ascension of ascending node: 292.7489°
argument of perigee: 98.1483°
revolutions per day: 2.22303805
mean anomaly at epoch: 6.9198°
orbit number at epoch: 31047

The dashed part of the orbit path shows where the satellite is in the earth's shadow,  

DLR